Location: Ipswich
(52.0579°N, 1.1528°E)
Time: 10:02:36
(UTC+01:00)

ISS - Pass Details

Date: 03 May 2026
Orbit: 414 x 424 km, 51.6° (Epoch: 8 May)

Event Time Altitude Azimuth Distance (km) Brightness Sun altitude
Exits shadow 02:17:05 65° 112° (ESE) 465 -3.7 -19.8°
Drops below altitude 10° 02:20:04 10° 85° (E) 1,501 -0.6 -19.7°
Sets 02:22:11 0° 84° (E) 2,368 0.5 -19.6°
